Flag for Norway Weather past 2 weeks in Molde, Norway

Now
52 °F

Scattered clouds.


Feels Like: 49 °F
Forecast: 44 / 54 °F
Wind: 9 mph from East

Location: Molde / Aro

Current Time: Sep 22, 2014 at 6:40:23 PM

Latest Report: Sep 22, 2014 at 5:50 PM


Visibility: N/A

Pressure: 30.09 "Hg

Humidity: 62%

Dew point: 39 °F

Location of MoldeLocation

Historic Weather in Molde — Graph

°F

Molde temperature yesterday

Maximum temperature yesterday: 54 °F (at 2:20 AM)
Minimum temperature yesterday: 45 °F (at 8:50 PM)
Average temperature yesterday: 50 °F

Past Weeks' High & Low Weather Summary

 TemperatureHumidityPressure
High68 °F (Sep 8, 5:20 PM)100% (Sep 13, 9:50 AM)30.51 "Hg (Sep 13, 9:50 AM)
Low43 °F (Sep 22, 6:20 AM)56% (Sep 12, 1:50 PM)29.80 "Hg (Sep 8, 8:50 AM)
Average56 °F83%30.15 "Hg
* Reported Sep 7 5:20 PM — Sep 22 5:20 PM, Molde, Weather by CustomWeather, © 2014

Note: Actual official high and low records may vary slightly from our data, if they occured in-between our weather recording intervals... More about our weather records

Advertising

Molde weather history for previous 24 hours

 ConditionsComfort  
Time TempWeatherWind HumidityBarometerVisibility
5:20 PM
Sep 22
54 °FScattered clouds.9 mph58%30.09 "HgN/A
4:50 PM54 °FScattered clouds.9 mph63%30.12 "HgN/A
4:20 PM54 °FScattered clouds.9 mph58%30.12 "HgN/A
3:50 PM54 °FScattered clouds.8 mph63%30.12 "HgN/A
3:20 PM54 °FScattered clouds.8 mph67%30.12 "HgN/A
2:50 PM52 °FScattered clouds.6 mph62%30.15 "HgN/A
2:20 PM52 °FScattered showers. Partly sunny.5 mph62%30.15 "HgN/A
1:50 PM52 °FScattered showers. Partly sunny.3 mph62%30.15 "HgN/A
1:20 PM52 °FScattered showers. Partly sunny.2 mph67%30.15 "HgN/A
12:50 PM50 °FSprinkles. Partly sunny.2 mph71%30.18 "HgN/A
12:20 PM48 °FScattered showers. Partly sunny.5 mph82%30.18 "HgN/A
11:50 AM50 °FPartly sunny.5 mph76%30.15 "HgN/A
11:20 AM48 °FPartly sunny.5 mph82%30.15 "HgN/A
10:50 AM48 °FPartly sunny.7 mph82%30.18 "HgN/A
10:20 AM50 °FPartly sunny.2 mph76%30.18 "HgN/A
9:50 AM48 °FScattered showers. Partly sunny.3 mph82%30.18 "HgN/A
9:20 AM46 °FScattered showers. Partly sunny.5 mph82%30.18 "HgN/A
8:50 AM45 °FSprinkles. Broken clouds.5 mph87%30.18 "HgN/A
8:20 AM45 °FPartly sunny.7 mph87%30.18 "HgN/A
7:50 AM43 °FPassing clouds.7 mph93%30.18 "HgN/A
7:20 AM43 °FPassing clouds.9 mph93%30.18 "HgN/A
6:50 AM43 °FPassing clouds.9 mph87%30.18 "HgN/A
6:20 AM43 °FScattered showers. Passing clouds.8 mph87%30.15 "HgN/A
5:50 AM45 °FPassing clouds.5 mph87%30.15 "HgN/A
11:20 PM
Sep 21
45 °FSprinkles. Passing clouds.2 mph93%30.12 "HgN/A
10:50 PM45 °FScattered showers. Passing clouds.2 mph93%30.12 "HgN/A
10:20 PM45 °FSprinkles. Passing clouds.3 mph93%30.12 "HgN/A
9:50 PM45 °FSprinkles. Passing clouds.3 mph93%30.09 "HgN/A
9:20 PM45 °FSprinkles. Partly cloudy.5 mph93%30.09 "HgN/A
8:50 PM45 °FRain showers. Partly cloudy.6 mph93%30.09 "HgN/A
8:20 PM46 °FScattered showers. Broken clouds.1 mph87%30.07 "HgN/A
7:50 PM46 °FScattered showers. Broken clouds.6 mph93%30.07 "HgN/A
7:20 PM46 °FScattered showers. Broken clouds.5 mph87%30.07 "HgN/A
6:50 PM48 °FScattered showers. Broken clouds.3 mph82%30.07 "HgN/A
6:20 PM48 °FScattered showers. Broken clouds.6 mph76%30.07 "HgN/A
Weather by CustomWeather, © 2014

See weather overviewHow to use our weather pages